Weather History for Barksdale AFB, LA

Change the Weather History Date:

Friday, March 9, 2012

  Actual Average Record
Temperature  
Mean Temperature 49 °F -  
Max Temperature 57 °F 62 °F 83 °F (2009)
Min Temperature 41 °F 43 °F 33 °F (1998)
Degree Days  
Heating Degree Days 16    
Moisture  
Dew Point 38 °F    
Average Humidity 74    
Maximum Humidity 93    
Minimum Humidity 31    
Precipitation  
Precipitation 0.50 in - - ()
Sea Level Pressure  
Sea Level Pressure 30.34 in    
Wind  
Wind Speed 12 mph (NE)    
Max Wind Speed 18 mph    
Max Gust Speed 24 mph    
Visibility 9 miles    
Events Rain    
Averages and records for this station are not official NWS values.
T = Trace of Precipitation, MM = Missing Value Source: NWS Daily Summary

Daily Weather History Graph

Daily Weather History Graph

Search for Another Location

Airport:

Trip Planner

Search our weather history database for the weather conditions in past years. The results will help you decide how hot, cold, wet, or windy it might be!

Date:

Astronomy

Mar. 09, 2012 Rise Set
Actual Time 6:31 AM CST 6:18 PM CST
Civil Twilight 6:07 AM CST 6:43 PM CST
Nautical Twilight 5:38 AM CST 7:11 PM CST
Astronomical Twilight 5:10 AM CST 7:40 PM CST
Moon 8:08 PM CST (3/9) 6:59 AM CST (3/9)
Length of Visible Light 12h 35m
Length of Day
11h 46m
Full, 97% of the Moon is Illuminated
Mar 9
Full
Mar 14
Last Quarter
Mar 22
New
Mar 30
First Quarter
Apr 6
Full

Hourly Weather History & Observations

Time (CST) Temp. Windchill Dew Point Humidity Pressure Visibility Wind Dir Wind Speed Gust Speed Precip Events Conditions
12:30 AM 46.4 °F 41.1 °F 44.6 °F 93% 30.26 in 10.0 mi NE 11.5 mph 20.7 mph N/A Rain Light Rain
12:38 AM 46.4 °F 40.7 °F 44.6 °F 93% 30.27 in 10.0 mi NE 12.7 mph 19.6 mph N/A   Light Drizzle
12:46 AM 46.4 °F 39.8 °F 44.6 °F 93% 30.27 in 8.0 mi NE 16.1 mph - N/A Rain Heavy Rain
12:49 AM 46.4 °F 39.5 °F 44.6 °F 93% 30.27 in 6.0 mi NE 17.3 mph 20.7 mph N/A Rain Heavy Rain
12:55 AM 45.9 °F 40.0 °F 43.5 °F 92% 30.27 in 4.0 mi NE 12.7 mph 20.7 mph 0.22 in Rain Heavy Rain
12:56 AM 46.4 °F 40.4 °F 42.8 °F 87% 30.28 in 4.0 mi NE 13.8 mph 20.7 mph N/A Rain Heavy Rain
12:58 AM 46.4 °F 40.7 °F 42.8 °F 87% 30.28 in 5.0 mi NE 12.7 mph - N/A Rain Heavy Rain
1:13 AM 46.4 °F 40.4 °F 42.8 °F 87% 30.27 in 7.0 mi NNE 13.8 mph - N/A Rain Heavy Rain
1:48 AM 44.6 °F 39.7 °F 42.8 °F 93% 30.29 in 6.0 mi NNE 9.2 mph - N/A Rain Heavy Rain
1:53 AM 44.6 °F 37.8 °F 42.8 °F 93% 30.27 in 7.0 mi NE 15.0 mph 18.4 mph N/A Rain Heavy Rain
1:55 AM 44.4 °F 37.2 °F 42.6 °F 93% 30.26 in 8.0 mi NE 16.1 mph 21.9 mph 0.23 in Rain Heavy Rain
2:08 AM 44.6 °F 37.2 °F 42.8 °F 93% 30.26 in 10.0 mi NE 17.3 mph 21.9 mph N/A Rain Light Rain
2:21 AM 44.6 °F 38.8 °F 42.8 °F 93% 30.29 in 10.0 mi NNE 11.5 mph - N/A   Light Drizzle
2:25 AM 44.6 °F 38.8 °F 42.8 °F 93% 30.30 in 10.0 mi NNE 11.5 mph - N/A   Overcast
2:44 AM 44.6 °F 36.9 °F 41.0 °F 87% 30.30 in 10.0 mi NE 18.4 mph - N/A   Overcast
2:51 AM 42.8 °F 35.1 °F 41.0 °F 93% 30.29 in 10.0 mi NNE 16.1 mph - N/A   Light Drizzle
2:54 AM 42.8 °F 36.2 °F 41.0 °F 93% 30.30 in 10.0 mi NNE 12.7 mph - N/A   Light Drizzle
2:55 AM 43.7 °F 36.3 °F 41.0 °F 90% 30.30 in 10.0 mi NNE 16.1 mph 23.0 mph 0.02 in   Light Drizzle
2:57 AM 42.8 °F 35.1 °F 41.0 °F 93% 30.30 in 10.0 mi NNE 16.1 mph 23.0 mph N/A   Light Drizzle
3:33 AM 42.8 °F 35.4 °F 41.0 °F 93% 30.32 in 10.0 mi NE 15.0 mph 19.6 mph N/A Rain Light Rain
3:55 AM 43.0 °F 37.2 °F 40.3 °F 90% 30.29 in 10.0 mi East 10.4 mph - 0.02 in Rain Light Rain
4:55 AM 42.1 °F 33.9 °F 38.3 °F 86% 30.31 in 10.0 mi NE 17.3 mph - 0.00 in   Overcast
5:35 AM 42.8 °F 35.4 °F 37.4 °F 81% 30.32 in 10.0 mi NE 15.0 mph 21.9 mph N/A   Overcast
5:55 AM 41.9 °F 34.3 °F 37.4 °F 84% 30.32 in 10.0 mi ENE 15.0 mph 24.2 mph N/A   Overcast
6:55 AM 42.4 °F 35.7 °F 36.7 °F 80% 30.38 in 10.0 mi NE 12.7 mph - N/A   Overcast
7:02 AM 42.8 °F 37.5 °F 37.4 °F 81% 30.38 in 10.0 mi ENE 9.2 mph - N/A   Light Drizzle
7:23 AM 42.8 °F 38.6 °F 37.4 °F 81% 30.40 in 10.0 mi NE 6.9 mph - N/A   Overcast
7:27 AM 42.8 °F 38.6 °F 37.4 °F 81% 30.40 in 10.0 mi NE 6.9 mph - N/A   Light Drizzle
7:55 AM 41.5 °F 35.9 °F 37.9 °F 87% 30.43 in 10.0 mi NE 9.2 mph - 0.01 in   Light Drizzle
8:25 AM 42.8 °F 36.6 °F 37.4 °F 81% 30.42 in 10.0 mi NE 11.5 mph - N/A   Overcast
8:55 AM 44.4 °F 39.0 °F 36.3 °F 73% 30.42 in 10.0 mi ENE 10.4 mph - 0.00 in   Overcast
9:55 AM 48.0 °F - 34.9 °F 60% 30.43 in 10.0 mi ENE 15.0 mph 21.9 mph N/A   Overcast
10:55 AM 50.0 °F - 32.9 °F 52% 30.44 in 10.0 mi ENE 10.4 mph - N/A   Overcast
11:55 AM 52.9 °F - 30.2 °F 42% 30.43 in 10.0 mi East 11.5 mph 20.7 mph N/A   Overcast
12:55 PM 54.1 °F - 27.9 °F 36% 30.43 in 10.0 mi ENE 8.1 mph - N/A   Overcast
1:55 PM 56.5 °F - 29.7 °F 36% 30.38 in 10.0 mi ENE 10.4 mph - N/A   Mostly Cloudy
2:55 PM 57.6 °F - 26.8 °F 31% 30.32 in 10.0 mi ENE 13.8 mph 20.7 mph N/A   Partly Cloudy
3:55 PM 57.9 °F - 27.0 °F 31% 30.34 in 10.0 mi NE 10.4 mph - N/A   Clear
4:55 PM 57.4 °F - 28.0 °F 33% 30.35 in 10.0 mi ENE 8.1 mph - N/A   Clear
5:55 PM 55.9 °F - 28.8 °F 35% 30.36 in 10.0 mi ENE 6.9 mph - N/A   Clear
6:55 PM 54.1 °F - 30.9 °F 41% 30.39 in 10.0 mi ENE 4.6 mph - N/A   Clear
7:55 PM 53.1 °F - 32.0 °F 45% 30.40 in 10.0 mi ENE 4.6 mph - N/A   Overcast
8:55 PM 51.8 °F - 33.6 °F 50% 30.40 in 10.0 mi East 6.9 mph - N/A   Clear
9:55 PM 49.3 °F - 34.7 °F 57% 30.39 in 10.0 mi NE 4.6 mph - N/A   Clear
10:55 PM 49.3 °F - 34.5 °F 57% 30.37 in 10.0 mi ENE 4.6 mph - N/A   Mostly Cloudy
11:55 PM 47.5 °F - 35.2 °F 63% 30.35 in 10.0 mi ENE 4.6 mph - N/A   Partly Cloudy